www.pogodaiklimat.ru

Погода и климат >> Архив погоды >> Россия >> Якутия >> Верхоянск


АРХИВ ПОГОДЫ в Верхоянске

Время (UTC), дата Ветер
(напр.,м/с)
 
Видим.   Явления Облачность Т
(С)
Тd
(С)
f
(%)
Тe
(С)
Тes
(С)
Комфортность P
(гПа)
Po
(гПа)
Тmin
(С)
Tmax
(С)
R
(мм)
R24
(мм)
S
(см)
15 19.06 СВ 1 50 км 8/0
[Ac As]
+13.8 +8.0 68 +14 +14 тепло 1006.7 990.4
18 19.06 Ю 2 50 км 8/0
[Ac As]
+12.2 +7.7 74 +11 +11 тепло 1007.1 990.7
21 19.06 З 1 50 км 8/0
[Ac trans Ci fib]
+12.7 +7.1 69 +13 +15 тепло 1006.9 990.5 +11.7
00 20.06 Ю 2 50 км 9/3 1000 м
[Cb calv Ac und Ci ing]
+17.6 +4.4 42 +18 +21 тепло 1005.4 989.4
03 20.06 Ю 3 50 км 9/3 1000 м
[Cu med, cong Cs]
+19.7 +5.9 40 +21 +26 комфорт 1003.7 987.8
06 20.06 С 2 50 км 9/3 1500 м
[Cu med, cong Ac trans Ci fib]
+19.6 +4.2 36 +21 +24 комфорт 1001.7 985.9
09 20.06 В 3 50 км 10/3 1000 м
[Cb cap Ac trans Cs]
+18.0 +6.4 47 +18 +19 по сезону 1001.6 985.6 +20.7
12 20.06 С 4
{12}
20 км слабый ливневой дождь 9/9 1320 м
[Cb cap]
+12.5 +7.9 74 +11 +11 холодно 1004.3 987.9
15 20.06 С 1
{10}
50 км в посл. час ливневой дождь 8/3 1000 м
[Cb cap Cs]
+9.9 +8.1 89 +9 +9 прохладно 1005.6 989.1
18 20.06 Ю 1 50 км {ливн. осадки} ясно +8.6 +6.7 88 +8 +8 по сезону 1007.6 991.0
21 20.06 СВ 2 50 км ясно +11.2 +5.6 68 +10 +13 по сезону 1009.3 992.8 +8.4 5
00 21.06 СВ 1 50 км 1/1 1000 м
[Cu med, cong]
+14.3 +3.8 49 +15 +24 по сезону 1009.4 993.1
03 21.06 Ю 1 50 км 3/3 1000 м
[Cu med, cong]
+16.3 +4.4 45 +17 +27 по сезону 1008.2 992.1
06 21.06 ЮЗ 4 50 км 8/3 1000 м
[Cu med, cong Ci fib]
+19.1 +4.3 38 +19 +23 по сезону 1005.9 990.0
09 21.06 Ю 2 50 км 8/0
[Ac trans Ci fib]
+19.5 +3.8 35 +20 +23 тепло 1004.5 988.6 +20.0
12 21.06 СЗ 1 50 км 10/0
[Ac trans Cs]
+17.2 +7.3 52 +18 +19 тепло 1003.6 987.6
15 21.06 СВ 1 50 км 9/0
[Ac trans Cs]
+10.5 +7.0 79 +10 +10 по сезону 1002.7 986.3
18 21.06 СВ 1 50 км 10/4 1000 м
[Sc Ac und]
+10.3 +6.7 78 +10 +10 по сезону 1001.9 985.5
21 21.06 ЮЗ 1 50 км в посл. час ливневой дождь 10/3 1000 м
[Cb cap Ac As]
+11.4 +8.2 81 +11 +12 по сезону 1002.3 986.0 +8.2 0.1
00 22.06 СЗ 1 50 км {ливн. осадки} 9/3 1000 м
[Cb cap Ac trans]
+13.5 +7.5 67 +14 +17 по сезону 1002.6 986.4
03 22.06 В 1 50 км 1/0
[Ac trans]
+20.9 +10.1 50 +24 +36 комфорт 1002.1 986.3
06 22.06 В 1 50 км 1/1 1500 м
[Cu med, cong]
+24.9 +11.6 43 +26 +35 жарко 1001.3 985.8
09 22.06 СВ 3 50 км 9/0
[Cs]
+23.9 +11.2 45 +25 +28 комфорт 1000.9 985.3 +26.0
12 22.06 СВ 2 50 км 8/0
[Ac trans Ci fib]
+21.2 +11.3 53 +23 +23 комфорт 1000.5 984.8
15 22.06 С 2 50 км 8/0
[Ac trans Ci fib]
+17.1 +11.0 67 +17 +17 тепло 1000.1 984.1
18 22.06 СВ 2 50 км 9/1 1000 м
[Cb cap Ac trans Ci fib]
+15.3 +10.8 75 +15 +15 тепло 998.0 982.0
21 22.06 ЮЗ 4 20 км слабый дождь 10/0
[As op]
+17.7 +11.7 68 +17 +18 тепло 997.2 981.3 +14.7 0.0
00 23.06 штиль 0 50 км {дождь} 10/1 1000 м
[Cb cap Ac As]
+16.4 +14.5 89 +16 +19 тепло 996.7 980.7 +16.1
03 23.06 СВ 3 50 км 9/0
[Ac trans Ci fib]
+20.8 +16.2 75 +25 +30 комфорт 994.0 978.2
06 23.06 СВ 4 50 км 6/1 1500 м
[Cu med, cong Ci fib]
+26.6 +17.1 56 +31 +35 душно 991.0 975.6
09 23.06 СВ 5
{12}
50 км 8/3 1000 м
[Cb cap Ac trans Ci fib]
+22.6 +15.3 63 +26 +27 жарко 992.9 977.3 +27.6 0.8
12 23.06 С 2
{10}
50 км в посл. час гроза {ливн. осадки} 10/10 1440 м
[Cb cap]
+17.1 +16.0 93 +17 +17 по сезону 993.6 977.7
15 23.06 СЗ 5-10
{10}
20 км слабый ливневой дождь {гроза} 10/10 800 м
[Cb cap]
+12.0 +10.5 91 +9 +9 прохладно 997.8 981.6
18 23.06 С 3
{11}
50 км осадки на расстоянии {гроза, ливн. осадки} 10/10 870 м
[Cb cap]
+4.7 +2.0 83 +1 +1 холодно 1002.9 986.2
21 23.06 С 1
{10}
10 км слабый ливневой дождь 10/10 1140 м
[Cb cap]
+3.4 +1.6 88 +2 +2 очень
холодно
1007.5 990.6 +3.4 14
00 24.06 С 5
{10}
50 км в посл. час ливневой дождь 9/5 600 м
[Cb cap Ac trans]
+3.8 +0.9 81 -1 -0 очень
холодно
1011.4 994.5
03 24.06 С 5
{11}
50 км 10/10 750 м
[Sc]
+5.0 +0.3 72 +1 +1 очень
холодно
1014.1 997.2
06 24.06 С 2 50 км 8/8 870 м
[Sc]
+7.9 +1.3 63 +6 +8 очень
холодно
1014.4 997.6
09 24.06 С 2 50 км 3/1 600 м
[Cu hum Ci fib]
+11.4 +2.1 53 +11 +13 холодно 1014.7 998.1 +11.4 0.5
12 24.06 СЗ 1 50 км ясно +12.5 +2.4 50 +13 +13 прохладно 1015.1 998.6
15 24.06 В 1 50 км ясно +5.3 +1.0 74 +4 +4 очень
холодно
1016.1 999.2
18 24.06 штиль 0 50 км 1/0
[Ci fib]
+4.4 +2.4 87 +3 +4 холодно 1016.7 999.7
21 24.06 ЮЗ 1 50 км 1/0
[Ci fib]
+7.0 +3.5 78 +6 +9 холодно 1016.9 1000.1 +2.7
00 25.06 ЮЗ 2 50 км 9/0
[Ci]
+12.3 +3.0 53 +12 +18 прохладно 1016.4 999.9
03 25.06 ЮЗ 2 50 км 1/0
[Ci fib]
+16.5 +3.3 41 +17 +28 по сезону 1015.1 998.8
06 25.06 В 1 50 км 1/0
[Ci fib]
+19.4 +3.0 34 +21 +31 комфорт 1012.9 996.9
09 25.06 ЮЗ 2 50 км ясно +21.2 +4.2 33 +21 +25 комфорт 1011.8 995.9 +21.3
12 25.06 штиль 0 50 км 8/0
[Ci fib]
+19.5 +6.3 42 +20 +20 тепло 1011.0 995.0
15 25.06 С 1 50 км 8/0
[Ci fib]
+10.9 +6.7 75 +11 +11 по сезону 1011.2 994.6
18 25.06 С 1 50 км 4/0
[Ci fib]
+10.4 +5.6 72 +10 +10 по сезону 1011.0 994.4
21 25.06 СВ 2 50 км 3/0
[Ci fib]
+13.3 +5.9 61 +13 +15 по сезону 1009.9 993.5 +8.4
00 26.06 штиль 0 50 км 8/0
[Ci]
+19.3 +8.2 49 +20 +29 тепло 1008.2 992.3
03 26.06 Ю 2 50 км 8/0
[Ci]
+25.0 +6.1 30 +25 +34 комфорт 1006.0 990.4
06 26.06 СВ 2 50 км 8/0
[Ac trans Ci fib]
+25.8 +6.9 30 +26 +32 жарко 1004.9 989.3
09 26.06 СВ 2 50 км 6/0
[Ci]
+26.6 +7.4 30 +26 +29 жарко 1004.4 988.8 +26.9

 

Местоположение метеостанции Верхоянск (Якутия, Россия): широта 67.57 долгота 133.40 высота над уровнем моря 136 м.

В архиве по умолчанию представлена погода в Верхоянске за последнюю неделю. Архивные данные за месяц целиком и за предыдущие месяцы, начиная с января 2011 года, Вы можете получить, выбрав интересующий диапазон дат из раскрывающегося списка и нажав кнопку "Ввод!".

Внимание! Время в таблицах - всемирное. Для получения местного времени необходимо прибавить поправку, которая в Верхоянске равна 10 ч.

Смотрите также архив погоды в соседних городах и на ближайших метеорологических станциях:

Погода в Батагае (Якутия, Россия) (52 км)
Погода в Екюччю (Якутия, Россия) (118 км)
Погода в Батагай-Алыте (Якутия, Россия) (129 км)
Погода в Усть-Чарках (Якутия, Россия) (162 км)
Погода в Иэме (Якутия, Россия) (274 км)
Погода в Усть-Куйге (Якутия, Россия) (284 км)
Погода в Себян-Кюеле (Якутия, Россия) (294 км)
Погода в Депутатском (Якутия, Россия) (329 км)
Погода в Юбилейной (Якутия, Россия) (373 км)
Погода в Джарджане (Якутия, Россия) (409 км)

Пояснения к столбцам:

Ветер - указаны скорость ветра в м/с - средняя за 10 мин, порывы в срок и между сроками (в фигурных скобках) и направление, откуда дует ветер: С - северный, СВ - северо-восточный, В - восточный, ЮВ - юго-восточный, Ю - южный, ЮЗ - юго-западный, З - западный, СЗ - северо-западный.
Видимость - горизонтальная дальность видимости в метрах или километрах. При видимости от 1 до 10 км при отсутствии осадков обычно наблюдается дымка, при ухудшении видимости до 1 км и менее - туман. В сухую погоду видимость может ухудшаться дымом, пылью или мглою.
Явления - указаны атмосферные явления, наблюдавшиеся в срок или в последний час перед сроком; фигурными скобками обозначены явления, наблюдавшиеся между сроками (за 1-3 часа до срока); квадратными скобками обозначены град или гололедные отложения с указанием их диаметра в мм.
Облачность - указаны через наклонную черту общая и нижняя облачность в баллах и высота нижней границы облаков в метрах; квадратными скобками обозначены формы облаков: Ci - перистые, Cs - перисто-слоистые, Cc - перисто-кучевые, Ac - высококучевые, As - высокослоистые, Sc - слоисто-кучевые, Ns - слоисто-дождевые, Cu - кучевые, Cb - кучево-дождевые. Подробнее классификацию облаков см. в Атласе облаков (PDF).
T - Температура воздуха - температура, измеренная на высоте 2 м над землей.
Td - Температура точки росы - температура, при понижении до которой содержащийся в воздухе водяной пар достигнет насыщения.
f - Относительная влажность воздуха - влажноcть воздуха, измеренная на высоте 2 м над землей.
Te - Эффективная температура - температура, которую ощущает одетый по сезону человек в тени. Характеристика душности погоды. При расчете учитывается влияние влажности воздуха и скорости ветра на теплоощущения человека.
Tes - Эффективная температура на солнце - температура, которую ощущает человек, с поправкой на солнечный нагрев. Характеристика знойности погоды. Зависит от высоты солнца над горизонтом, облачности и скорости ветра. Ночью, в пасмурную погоду, а также при ветре 12 м/с и более поправка равна нулю.
P - Атмосферное давление - приведенное к уровню моря атмосферное давление.
Po - Атмосферное давление - измеренное на уровне метеостанции атмосферное давление.
Tmin - Минимальная температура - минимум температуры воздуха на высоте 2 м над землей.
Tmax - Максимальная температура - максимум температуры воздуха на высоте 2 м над землей.
R - Количество осадков - Количество выпавших осадков за период времени, мм. При наведении курсора мыши на число - период времени, за который выпало указанное количество осадков.
R24 - Количество осадков - Количество выпавших осадков за 24 часа, мм.
S - Снежный покров - Высота снежного покрова, см. При наведении курсора мыши на число - состояние снежного покрова и степень покрытия местности в баллах.